This demonstration page uses our WeatherBlox Daily Observations layout. Learn more.

Left ArrowRight Arrow

39.51506, -84.39828

Hourly Observations for April 8, 2015

Temp ( °F °C ) Dew Point ( °F °C ) Humidity (%) Winds ( mph kmh ) Pressure ( in mb ) Visibility ( mi km ) Precip ( " mm )
12:15 am 00:15 Partly Cloudy with Mist and Fog 61 16 57 14 88 88 N N/A 30.03 1017 5 8.0467 N/A
12:35 am 00:35 Mostly Cloudy with Fog 60 15.3 56 13.5 89 89 N N/A 30.06 1018 0.25 0.402335 N/A
12:55 am 00:55 Mostly Cloudy with Fog 57 13.8 54 12 89 89 N N/A 30.06 1018 0.5 0.80467 N/A
1:15 am 01:15 Cloudy with Fog 57 13.8 54 12 89 89 N N/A 30.06 1018 0.25 0.402335 N/A
1:35 am 01:35 Cloudy with Fog 57 13.8 54 12 89 89 N N/A 30.06 1018 0.25 0.402335 N/A
1:55 am 01:55 Cloudy with Fog 57 13.8 54 12.1 90 90 N N/A 30.06 1018 0.5 0.80467 N/A
2:15 am 02:15 Cloudy with Mist and Fog 57 13.8 54 12.1 90 90 N N/A 30.06 1018 0.75 1.207005 N/A
2:35 am 02:35 Cloudy with Fog 57 13.8 54 12.1 90 90 N N/A 30.06 1018 0.5 0.80467 N/A
2:55 am 02:55 Cloudy with Fog 57 13.8 54 12.2 90 90 N N/A 30.06 1018 0.5 0.80467 N/A
3:15 am 03:15 Cloudy with Mist and Fog 57 13.8 54 12.2 90 90 N N/A 30.06 1018 0.75 1.207005 N/A
3:35 am 03:35 Cloudy with Fog 57 13.8 54 12.1 90 90 N N/A 30.06 1018 0.25 0.402335 N/A
3:55 am 03:55 Cloudy with Fog 57 13.8 54 12.2 90 90 N N/A 30.06 1018 0.25 0.402335 N/A
4:15 am 04:15 Cloudy with Fog 57 13.8 54 12.2 90 90 N N/A 30.03 1017 0.25 0.402335 N/A
4:35 am 04:35 Cloudy with Fog 57 13.8 54 12.2 90 90 N N/A 30.03 1017 0.25 0.402335 N/A
4:55 am 04:55 Cloudy with Fog 57 13.8 54 12.2 90 90 N N/A 30.03 1017 0.25 0.402335 N/A
5:15 am 05:15 Cloudy with Fog 55 12.6 52 11 90 90 N N/A 30.03 1017 0.25 0.402335 N/A
5:35 am 05:35 Cloudy with Fog 55 12.5 51 10.8 89 89 N N/A 30.03 1017 0.25 0.402335 N/A
5:55 am 05:55 Cloudy with Fog 56 13.1 53 11.5 90 90 N N/A 30 1016 0.25 0.402335 N/A
6:15 am 06:15 Cloudy with Fog 56 13.1 53 11.5 90 90 N N/A 30 1016 0.5 0.80467 N/A
6:35 am 06:35 Cloudy with Mist and Fog 56 13.2 53 11.6 90 90 N N/A 30 1016 1 1.60934 N/A
6:55 am 06:55 Cloudy with Mist and Fog 55 12.7 52 11.2 91 91 N N/A 30 1016 0.75 1.207005 N/A
7:15 am 07:15 Cloudy with Fog 55 12.5 51 10.8 89 89 N N/A 30 1016 0.25 0.402335 N/A
7:35 am 07:35 Cloudy with Fog 55 12.5 51 10.8 89 89 N N/A 30 1016 0.5 0.80467 N/A
7:55 am 07:55 Cloudy with Mist and Fog 57 13.8 55 12.5 92 92 N N/A 30 1016 2 3.21868 N/A
8:15 am 08:15 Cloudy with Mist and Fog 59 15.2 57 13.7 91 91 N N/A 30 1016 4 6.43736 N/A
8:35 am 08:35 Cloudy 60 15.3 57 13.8 91 91 N N/A 30 1016 7 11.26538 N/A
8:55 am 08:55 Cloudy with Mist and Fog 61 16 58 14.5 91 91 N N/A 29.97 1015 5 8.0467 N/A
9:15 am 09:15 Cloudy with Mist and Fog 61 16 58 14.4 90 90 S 7 11 29.97 1015 5 8.0467 N/A
9:35 am 09:35 Cloudy 62 16.6 59 15 90 90 SSW 7 11 29.97 1015 10 16.0934 N/A
9:55 am 09:55 Cloudy 62 16.6 58 14.7 89 89 SSW 7 11 30 1016 10 16.0934 N/A
10:15 am 10:15 Cloudy with Light Rain 62 16.6 58 14.6 88 88 S 6 9 30 1016 7 11.26538 N/A
10:35 am 10:35 Cloudy with Heavy Rain 62 16.4 58 14.2 87 87 WNW 31 50 30.12 1020 5 8.0467 N/A
10:55 am 10:55 Cloudy with Rain 57 13.8 53 11.8 88 88 WNW 9 15 30.09 1019 7 11.26538 N/A
11:15 am 11:15 Cloudy with Rain 60 15.3 56 13.3 88 88 N 6 9 30.06 1018 7 11.26538 N/A
11:35 am 11:35 Cloudy with Light Rain 60 15.3 56 13.2 87 87 NE 14 22 30 1016 10 16.0934 N/A
11:55 am 11:55 Mostly Cloudy 60 15.3 56 13.1 87 87 NE 6 9 29.94 1014 10 16.0934 N/A
12:15 pm 12:15 Partly Cloudy 60 15.3 55 13 86 86 SW 7 11 30 1016 10 16.0934 N/A
12:35 pm 12:35 Sunny 60 15.3 55 13 86 86 SW 6 9 30.03 1017 10 16.0934 N/A
12:55 pm 12:55 Sunny 62 16.4 57 13.7 84 84 SSW 10 17 30 1016 10 16.0934 N/A
1:15 pm 13:15 Sunny 62 16.6 56 13.5 82 82 SSW 13 20 30 1016 10 16.0934 N/A
1:35 pm 13:35 Partly Cloudy 64 18 57 13.9 77 77 SSW 9 15 30 1016 10 16.0934 N/A
1:55 pm 13:55 Sunny 67 19.5 58 14.3 72 72 S 9 15 30 1016 10 16.0934 N/A
2:15 pm 14:15 Sunny 69 20.8 60 15.4 71 71 S 7 11 29.97 1015 10 16.0934 N/A
2:35 pm 14:35 Sunny 69 20.8 58 14.6 68 68 SSE 8 13 29.97 1015 10 16.0934 N/A
2:55 pm 14:55 Sunny 69 20.8 57 14 65 65 SSE 9 15 29.97 1015 10 16.0934 N/A
3:15 pm 15:15 Partly Cloudy 70 20.9 56 13.5 63 63 SSW 10 17 29.97 1015 10 16.0934 N/A
3:35 pm 15:35 Mostly Cloudy 71 21.5 57 14 62 62 SSW 10 17 29.94 1014 10 16.0934 N/A
3:55 pm 15:55 Cloudy 74 23.4 60 15.5 61 61 WSW 10 17 29.94 1014 10 16.0934 N/A
4:15 pm 16:15 Cloudy 74 23.6 59 15.1 59 59 SSW 9 15 29.94 1014 10 16.0934 N/A
4:35 pm 16:35 Partly Cloudy 74 23.6 60 15.5 61 61 SSW 9 15 29.91 1013 10 16.0934 N/A
4:55 pm 16:55 Sunny 74 23.6 59 15.2 59 59 SSW 10 17 29.91 1013 10 16.0934 N/A
5:15 pm 17:15 Mostly Cloudy 74 23.6 61 16.1 63 63 SSW 10 17 29.91 1013 10 16.0934 N/A
5:35 pm 17:35 Partly Cloudy 74 23.6 62 16.5 65 65 SSW 9 15 29.91 1013 10 16.0934 N/A
5:55 pm 17:55 Mostly Cloudy 74 23.6 63 17 67 67 S 10 17 29.91 1013 10 16.0934 N/A
6:15 pm 18:15 Mostly Cloudy 74 23.6 64 17.5 69 69 SSW 7 11 29.91 1013 10 16.0934 N/A
6:35 pm 18:35 Partly Cloudy 72 22.3 62 16.5 70 70 S 7 11 29.91 1013 10 16.0934 N/A
6:55 pm 18:55 Cloudy with Light Rain 69 20.8 62 16.7 77 77 SSW 6 9 29.94 1014 10 16.0934 N/A
7:15 pm 19:15 Cloudy with Rain 69 20.8 63 17.4 81 81 WSW 6 9 29.94 1014 7 11.26538 N/A
7:35 pm 19:35 Cloudy with Light Rain 69 20.8 64 17.8 83 83 S 12 19 29.91 1013 10 16.0934 N/A
7:55 pm 19:55 Mostly Cloudy 69 20.8 64 17.8 83 83 NNE 5 7 29.91 1013 10 16.0934 N/A
8:15 pm 20:15 Mostly Cloudy with Light Rain 67 19.2 62 16.8 86 86 NW 9 15 29.97 1015 7 11.26538 N/A
8:35 pm 20:35 Cloudy with Rain 69 20.8 64 18 84 84 N 3 6 29.97 1015 7 11.26538 N/A
8:55 pm 20:55 Cloudy with Light Rain 67 19.5 62 16.4 82 82 N N/A 29.97 1015 7 11.26538 N/A
9:15 pm 21:15 Mostly Cloudy with Light Rain 66 19.1 61 15.9 82 82 SE 8 13 29.91 1013 10 16.0934 N/A
9:35 pm 21:35 Clear 67 19.5 61 16.1 81 81 S 9 15 29.94 1014 10 16.0934 N/A
9:55 pm 21:55 Partly Cloudy 69 20.8 65 18.2 85 85 S 12 19 29.94 1014 7 11.26538 N/A
10:15 pm 22:15 Partly Cloudy 67 19.6 62 16.9 85 85 SSE 5 7 29.94 1014 10 16.0934 N/A
10:35 pm 22:35 Mostly Cloudy 67 19.5 63 17 86 86 N N/A 29.94 1014 10 16.0934 N/A
10:55 pm 22:55 Mostly Cloudy 64 18 60 15.7 87 87 N N/A 29.91 1013 10 16.0934 N/A
11:15 pm 23:15 Partly Cloudy 64 17.6 60 15.4 87 87 N N/A 29.94 1014 10 16.0934 N/A
11:35 pm 23:35 Clear 63 17 59 14.8 87 87 N N/A 29.94 1014 10 16.0934 N/A
11:55 pm 23:55 Clear 62 16.8 58 14.6 87 87 N N/A 29.94 1014 10 16.0934 N/A

Powered by AerisWeather